[[{"header":{"parameterUnit":"m.s-1","parameterCategory":1,"la1":30.2991,"la2":30.254,"lo1":-89.0895,"lo2":-89.0444,"dy":0.0017,"dx":0.0017,"nx":28,"ny":28,"refTime":"2025-06-08T03:00:00:Z","depth":0,"parameterNumber":2,"parameterNumberName":"U-component_of_WINDS"},"data":[0,0,0,0,0,0,0,0,0,0,0,0,0,0,0,0,0,0,0,0,0,0,0,0,0,0,0,0,0,0,0,0,0,0,0,0,0,0,0,0,0,0,0,0,0,0,0,0,0,0,0,0,0,0,0,0,0,0,5.6434,5.6437,0,5.6668,5.667,5.6673,5.6659,5.6655,5.6652,5.6649,5.6886,5.6896,5.6905,0,0,0,0,0,0,0,0,0,0,0,0,0,5.5969,5.5978,5.6434,5.6437,5.644,5.6667,5.6671,5.6674,5.6659,5.6655,5.6651,5.6647,5.6883,5.6894,5.6906,0,0,0,0,0,0,0,0,0,0,0,0,0,5.6184,5.5981,5.6433,5.646,5.6465,5.6667,5.6671,5.6675,5.666,5.6655,5.665,5.6645,5.688,5.6893,5.6907,5.7097,0,0,5.6951,5.6957,0,0,0,0,0,0,0,0,5.6171,5.6201,5.6453,5.6459,5.6464,5.6629,5.6594,5.6816,5.6662,5.6586,5.6649,5.6643,5.6805,5.6825,5.688,5.7109,5.7119,5.6952,5.6961,5.6967,5.6971,0,0,0,0,0,0,0,5.6157,5.6191,5.6526,5.6457,5.6464,5.6458,5.6483,5.6636,5.6721,5.6592,5.6592,5.662,5.6807,5.6866,5.6885,5.7122,5.6952,5.6964,5.6973,5.6979,5.7512,5.7517,0,0,0,0,0,0,5.6136,5.6178,5.6519,5.6533,5.6302,5.6471,5.6499,5.6581,5.6719,5.6736,5.6624,5.6618,5.6844,5.6869,5.6894,5.7121,5.6967,5.698,5.6988,5.7506,5.7513,5.7519,0,0,0,0,0,0,5.6127,5.6167,5.651,5.6356,5.6399,5.6484,5.6577,5.6589,5.6648,5.6743,5.6758,5.6669,5.6841,5.6873,5.7045,5.7129,5.6987,5.7,5.75,5.7508,5.7516,5.758,0,0,0,0,0,0,5.6113,5.6164,5.6239,5.6358,5.6407,5.666,5.6582,5.6597,5.6673,5.6668,5.679,5.6805,5.684,5.7024,5.706,5.7146,5.7011,5.7492,5.7503,5.7513,5.757,5.7589,5.7605,0,0,0,0,0,5.6097,5.6248,5.6243,5.6284,5.6503,5.6665,5.6693,5.673,5.668,5.6754,5.6814,5.6801,5.7114,5.7042,5.7082,5.7174,5.7487,5.75,5.7512,5.7563,5.7585,5.7605,0,0,0,0,0,0,5.6138,5.6265,5.626,5.6455,5.6549,5.6662,5.6758,5.6754,5.6865,5.6855,5.6896,5.6923,5.7095,5.7152,5.7069,5.7361,5.7294,5.7315,5.7318,5.7341,5.7358,5.734,5.7023,0,0,0,0,0,5.6169,5.6291,5.6395,5.6557,5.6604,5.6673,5.6745,5.6764,5.6864,5.6903,5.6977,5.7072,5.7191,5.7269,5.7385,5.7578,5.7602,5.7661,5.7678,5.7692,5.7709,5.781,5.7836,5.756,5.756,5.756,0,0,5.6236,5.632,5.6395,5.6567,5.6643,5.6765,5.6707,5.6841,5.6931,5.6924,5.709,5.7146,5.7255,5.7437,5.7521,5.749,5.779,5.7708,5.7718,5.7728,5.7826,5.7851,5.7875,5.7569,5.7567,5.7566,0,0,5.642,5.6498,5.6639,5.6714,5.6828,5.6872,5.6905,5.7019,5.7055,5.7222,5.7218,5.7325,5.7531,5.7607,5.7673,5.7879,5.7869,5.7916,5.8006,5.8104,5.8126,5.8145,5.8214,5.8239,5.7933,5.7933,5.7933,0,5.6489,5.6675,5.6711,5.6845,5.6918,5.6916,5.7056,5.7128,5.7274,5.7323,5.7286,5.7541,5.7615,5.7812,5.7861,5.7916,5.7952,5.7902,5.812,5.8139,5.8158,5.8225,5.8251,5.7938,5.7937,5.7937,5.7936,0,5.6751,5.688,5.6979,5.7119,5.7203,5.734,5.7394,5.7475,5.7486,5.7532,5.7699,5.7787,5.7917,5.7966,5.7979,5.8163,5.814,5.8111,5.8044,5.8188,5.8251,5.8277,5.7944,5.7942,5.7941,5.794,0,0,5.697,5.7124,5.716,5.722,5.7344,5.7443,5.7577,5.7704,5.777,5.787,5.7981,5.8152,5.8124,5.8199,5.822,5.8306,5.8458,5.8266,5.8269,5.8296,5.8661,5.868,5.8709,5.8452,5.8457,5.8462,5.865,0,5.7164,5.7402,5.7436,5.7646,5.7762,5.7759,5.7874,5.7961,5.8007,5.811,5.816,5.828,5.8236,5.828,5.8365,5.8422,5.8531,5.8409,5.8553,5.8558,5.8524,5.8743,5.8765,5.8939,5.8676,5.868,5.8683,0,5.7423,5.7527,5.7748,5.785,5.79,5.8004,5.8119,5.822,5.8316,5.8342,5.8423,5.8432,5.8567,5.8494,5.8678,5.8594,5.8654,5.869,5.8698,5.8711,5.8628,5.8759,5.8996,5.9021,5.8723,5.872,5.8717,0,5.7555,5.7751,5.7907,5.7959,5.8084,5.8155,5.821,5.8301,5.8373,5.8474,5.8521,5.8637,5.8699,5.8787,5.8826,5.877,5.9006,5.8937,5.9029,5.9028,5.9078,5.9074,5.9325,5.9122,5.9121,5.9121,5.912,0,5.7767,5.7901,5.7967,5.8063,5.8211,5.8247,5.8393,5.8445,5.8524,5.8628,5.8633,5.8729,5.8775,5.8878,5.8909,5.9054,5.9083,5.9106,5.9112,5.9105,5.9101,5.9144,5.9132,5.9128,5.9126,5.9125,5.9124,0,5.794,5.7991,5.8159,5.8261,5.829,5.8394,5.848,5.8571,5.8614,5.8745,5.8777,5.8845,5.8965,5.9012,5.9161,5.9181,5.9347,5.9345,5.9314,5.9316,5.9403,5.9393,5.9689,5.9727,5.95,5.9503,5.9504,0,5.8071,5.8173,5.8285,5.8354,5.8411,5.8523,5.8596,5.8634,5.8709,5.8822,5.8899,5.9019,5.9117,5.9309,5.937,5.9481,5.948,5.9576,5.9497,5.9484,5.9477,5.947,5.9478,5.959,5.9592,5.9594,5.9596,0,5.8296,5.8314,5.8419,5.8532,5.8618,5.8709,5.8797,5.8853,5.8903,5.8987,5.9109,5.9185,5.9334,5.9452,5.9566,5.962,5.9615,5.962,5.9646,5.9639,5.9615,5.9625,5.9351,5.9613,5.9611,5.961,5.9609,5.9608,5.8449,5.8538,5.8629,5.8744,5.8814,5.8895,5.8983,5.9036,5.9139,5.9263,5.9279,5.9409,5.9497,5.965,5.9708,5.9809,5.9783,5.9823,5.9832,5.9841,5.9845,5.96,5.983,5.983,5.9829,5.9829,5.9829,0,5.8671,5.8728,5.8834,5.8955,5.9045,5.9033,5.9128,5.9203,5.9317,5.94,5.9495,5.9633,5.9746,5.9815,5.9927,5.9994,5.9994,6.0022,6.0016,6.0028,5.9863,5.9827,6.002,6.002,6.002,6.0019,6.0019,6.0019,5.8796,5.8944,5.8973,5.9153,5.921,5.9337,5.9392,5.9465,5.953,5.9684,5.9777,5.9821,5.9897,6.0014,6.0115,6.0132,6.0172,6.0201,6.0216,6.006,6.004,6.0021,5.9988,6.021,6.0211,6.0372,6.0373,6.0374]},{"header":{"parameterUnit":"m.s-1","parameterCategory":1,"la1":30.2991,"la2":30.254,"lo1":-89.0895,"lo2":-89.0444,"dy":0.0017,"dx":0.0017,"nx":28,"ny":28,"refTime":"2025-06-08T03:00:00:Z","depth":0,"parameterNumber":3,"parameterNumberName":"V-component_of_WINDS"},"data":[0,0,0,0,0,0,0,0,0,0,0,0,0,0,0,0,0,0,0,0,0,0,0,0,0,0,0,0,0,0,0,0,0,0,0,0,0,0,0,0,0,0,0,0,0,0,0,0,0,0,0,0,0,0,0,0,0,0,4.4733,4.4736,0,4.5029,4.5032,4.5035,4.509,4.5087,4.5085,4.5083,4.5392,4.5402,4.5412,0,0,0,0,0,0,0,0,0,0,0,0,0,4.4215,4.4224,4.4732,4.4736,4.474,4.5028,4.5032,4.5036,4.509,4.5087,4.5084,4.5082,4.5388,4.5401,4.5413,0,0,0,0,0,0,0,0,0,0,0,0,0,4.4468,4.4227,4.4732,4.4801,4.481,4.5027,4.5032,4.5037,4.5091,4.5087,4.5084,4.508,4.5384,4.5399,4.5415,4.5585,0,0,4.5463,4.547,0,0,0,0,0,0,0,0,4.4454,4.4487,4.4787,4.4797,4.4807,4.5018,4.4963,4.5221,4.5092,4.4985,4.5083,4.5078,4.5271,4.5296,4.5359,4.5599,4.5613,4.5464,4.5474,4.5481,4.5485,0,0,0,0,0,0,0,4.4436,4.4475,4.485,4.4792,4.4804,4.4818,4.485,4.5012,4.5145,4.4994,4.4998,4.5032,4.5276,4.5344,4.5367,4.5617,4.5464,4.5478,4.5488,4.5494,4.6006,4.601,0,0,0,0,0,0,4.4405,4.446,4.484,4.4859,4.4618,4.483,4.4866,4.4954,4.5143,4.5168,4.5035,4.5034,4.5319,4.5349,4.5378,4.5587,4.548,4.5495,4.5504,4.6002,4.6007,4.6012,0,0,0,0,0,0,4.4394,4.4439,4.4828,4.466,4.4711,4.4843,4.4942,4.4962,4.5031,4.5174,4.5198,4.5081,4.5317,4.5356,4.5532,4.5599,4.5502,4.5517,4.5997,4.6004,4.601,4.6008,0,0,0,0,0,0,4.4379,4.4435,4.4501,4.4661,4.472,4.4977,4.4946,4.4971,4.5057,4.5058,4.5223,4.5247,4.5317,4.5508,4.5547,4.5619,4.5529,4.5992,4.6,4.6008,4.6003,4.6014,4.6023,0,0,0,0,0,4.436,4.4491,4.4504,4.455,4.4805,4.4981,4.5014,4.5091,4.5062,4.513,4.5221,4.5242,4.5584,4.5525,4.557,4.5648,4.5988,4.5998,4.6007,4.5999,4.6012,4.6023,0,0,0,0,0,0,4.4339,4.4514,4.453,4.4716,4.4832,4.4989,4.5078,4.5103,4.5232,4.5227,4.5318,4.5355,4.5525,4.5604,4.5535,4.5819,4.5784,4.5803,4.5762,4.5776,4.5786,4.5764,4.5542,0,0,0,0,0,4.4355,4.4482,4.4628,4.4778,4.4835,4.4945,4.5025,4.5073,4.5198,4.5249,4.5353,4.5475,4.5609,4.5697,4.5829,4.6013,4.6049,4.6088,4.6097,4.6105,4.6121,4.6221,4.624,4.6043,4.6043,4.6043,0,0,4.4392,4.4503,4.4578,4.4776,4.4873,4.5002,4.4988,4.5126,4.5223,4.5271,4.5442,4.5522,4.5663,4.5843,4.5927,4.5914,4.6182,4.6117,4.6122,4.6135,4.6233,4.6251,4.6268,4.6049,4.6048,4.6047,0,0,4.4524,4.4621,4.4755,4.485,4.4993,4.5065,4.5096,4.5248,4.5302,4.5474,4.5511,4.5627,4.5858,4.5956,4.6037,4.6197,4.6221,4.6238,4.6291,4.6388,4.6403,4.6417,4.6474,4.6493,4.6253,4.6253,4.6253,0,4.4553,4.4748,4.4822,4.4957,4.5042,4.5086,4.5222,4.5311,4.5491,4.5549,4.553,4.5816,4.5915,4.6117,4.6155,4.6219,4.6257,4.6221,4.6394,4.641,4.6424,4.6479,4.65,4.6254,4.6254,4.6253,4.6253,0,4.4774,4.4909,4.5,4.5168,4.5263,4.5399,4.5492,4.5579,4.5616,4.5689,4.5862,4.5981,4.6136,4.6186,4.6226,4.6392,4.6379,4.6376,4.6343,4.6442,4.6496,4.6517,4.6255,4.6255,4.6255,4.6254,0,0,4.4909,4.511,4.5142,4.5217,4.5375,4.5481,4.5616,4.5764,4.5837,4.5958,4.6073,4.6263,4.626,4.635,4.6401,4.6485,4.6602,4.6472,4.6476,4.6492,4.6791,4.6793,4.6816,4.6617,4.6621,4.6625,4.6779,0,4.506,4.5301,4.5368,4.5573,4.5696,4.5736,4.5853,4.5962,4.6032,4.6147,4.6225,4.6358,4.6344,4.6398,4.6483,4.657,4.6664,4.656,4.6726,4.6731,4.6691,4.6844,4.6849,4.6989,4.68,4.6804,4.6806,0,4.5271,4.5391,4.5607,4.5743,4.5798,4.5903,4.6041,4.615,4.6274,4.6318,4.6415,4.6456,4.6598,4.6553,4.6749,4.6676,4.6747,4.6799,4.6806,4.6827,4.6776,4.687,4.7035,4.7056,4.684,4.6837,4.6835,0,4.5346,4.5562,4.5718,4.5781,4.5945,4.6016,4.6089,4.6208,4.6291,4.6412,4.6466,4.6603,4.6678,4.6782,4.6858,4.6819,4.7046,4.7009,4.7088,4.7086,4.7137,4.7133,4.7317,4.718,4.7179,4.7179,4.7178,0,4.5509,4.564,4.5753,4.5849,4.5995,4.6068,4.6211,4.6285,4.6389,4.65,4.6543,4.6646,4.6739,4.6854,4.6914,4.7066,4.7099,4.7139,4.7154,4.7137,4.7132,4.7187,4.718,4.7185,4.7183,4.7182,4.7181,0,4.562,4.5701,4.5873,4.6011,4.6049,4.615,4.6269,4.6364,4.6432,4.6571,4.6608,4.6716,4.6853,4.6938,4.7114,4.7153,4.732,4.7331,4.7278,4.7285,4.7359,4.7351,4.7586,4.762,4.7458,4.746,4.7461,0,4.572,4.582,4.5967,4.6043,4.6114,4.6236,4.6319,4.6394,4.6479,4.6623,4.67,4.6839,4.6954,4.7171,4.7266,4.7399,4.7414,4.7487,4.7435,4.7413,4.7416,4.7409,4.7419,4.7497,4.7498,4.7499,4.75,0,4.5888,4.5921,4.6039,4.6169,4.6266,4.6373,4.648,4.6539,4.6632,4.6725,4.6864,4.6952,4.7128,4.7265,4.7405,4.748,4.7506,4.7515,4.754,4.7525,4.749,4.7509,4.7303,4.751,4.7509,4.7509,4.7508,4.7508,4.5997,4.6087,4.6202,4.6331,4.6417,4.6514,4.6608,4.6685,4.6802,4.6949,4.6985,4.713,4.7247,4.7437,4.7513,4.7628,4.7617,4.7654,4.7664,4.7672,4.7673,4.7468,4.7653,4.7653,4.7653,4.7653,4.7653,0,4.6168,4.6242,4.6359,4.6504,4.6604,4.6614,4.6731,4.6815,4.6941,4.7046,4.7156,4.7314,4.7445,4.7547,4.7682,4.7754,4.7769,4.7787,4.7784,4.78,4.7675,4.764,4.7772,4.7772,4.7772,4.7772,4.7772,4.7772,4.6268,4.6419,4.6465,4.6657,4.6732,4.6872,4.6938,4.7027,4.711,4.7283,4.7391,4.7455,4.7559,4.77,4.7821,4.7847,4.7895,4.7911,4.794,4.7822,4.7809,4.7797,4.7764,4.7921,4.7921,4.8056,4.8057,4.8058]}]]